TimeEST,TemperatureF,Dew PointF,Humidity,Sea Level PressureIn,VisibilityMPH,Wind Direction,Wind SpeedMPH,Gust SpeedMPH,PrecipitationIn,Events,Conditions,WindDirDegrees,DateUTC
12:15 AM,66.2,66.2,100,30.35,0.2,Calm,Calm,-,N/A,,Unknown,0,2013-01-10 05:15:00
12:35 AM,64.4,64.4,100,30.35,0.2,Calm,Calm,-,N/A,,Unknown,0,2013-01-10 05:35:00
12:55 AM,64.4,64.4,100,30.34,0.2,Calm,Calm,-,N/A,,Unknown,0,2013-01-10 05:55:00
1:15 AM,64.4,64.4,100,30.35,0.2,Calm,Calm,-,N/A,,Mostly Cloudy,0,2013-01-10 06:15:00
1:35 AM,64.4,64.4,100,30.34,0.2,Calm,Calm,-,N/A,,Overcast,0,2013-01-10 06:35:00
3:15 AM,64.4,64.4,100,30.33,0.2,Calm,Calm,-,N/A,,Overcast,0,2013-01-10 08:15:00
3:35 AM,64.4,64.4,100,30.33,0.2,Calm,Calm,-,N/A,,Overcast,0,2013-01-10 08:35:00
3:55 AM,62.6,62.6,100,30.32,0.2,Calm,Calm,-,N/A,,Overcast,0,2013-01-10 08:55:00
4:15 AM,62.6,62.6,100,30.32,0.2,Calm,Calm,-,N/A,,Overcast,0,2013-01-10 09:15:00
4:55 AM,62.6,62.6,100,30.31,0.2,Calm,Calm,-,N/A,,Overcast,0,2013-01-10 09:55:00
5:15 AM,62.6,62.6,100,30.32,0.2,Calm,Calm,-,N/A,,Overcast,0,2013-01-10 10:15:00
5:35 AM,62.6,62.6,100,30.32,0.2,Calm,Calm,-,N/A,,Overcast,0,2013-01-10 10:35:00
5:55 AM,62.6,62.6,100,30.32,0.2,Calm,Calm,-,N/A,,Overcast,0,2013-01-10 10:55:00
6:15 AM,62.6,62.6,100,30.33,0.2,Calm,Calm,-,N/A,,Overcast,0,2013-01-10 11:15:00
6:55 AM,60.8,60.8,100,30.34,0.2,Calm,Calm,-,N/A,,Overcast,0,2013-01-10 11:55:00
7:15 AM,62.6,62.6,100,30.34,0.2,Calm,Calm,-,N/A,,Overcast,0,2013-01-10 12:15:00
7:35 AM,60.8,60.8,100,30.34,0.2,Calm,Calm,-,N/A,,Overcast,0,2013-01-10 12:35:00
7:55 AM,60.8,60.8,100,30.34,0.2,Calm,Calm,-,N/A,,Overcast,0,2013-01-10 12:55:00
8:15 AM,62.6,62.6,100,30.34,0.2,Calm,Calm,-,N/A,,Overcast,0,2013-01-10 13:15:00
8:35 AM,64.4,64.4,100,30.35,0.2,Calm,Calm,-,N/A,,Overcast,0,2013-01-10 13:35:00
8:55 AM,66.2,66.2,100,30.35,5.0,Calm,Calm,-,N/A,,Partly Cloudy,0,2013-01-10 13:55:00
9:15 AM,69.8,69.8,100,30.35,7.0,East,6.9,-,N/A,,Clear,100,2013-01-10 14:15:00
9:35 AM,71.6,71.6,100,30.35,9.0,ESE,5.8,-,N/A,,Clear,110,2013-01-10 14:35:00
9:55 AM,73.4,71.6,94,30.35,8.0,ESE,8.1,-,N/A,,Clear,120,2013-01-10 14:55:00
10:15 AM,75.2,69.8,83,30.34,8.0,ESE,8.1,-,N/A,,Clear,110,2013-01-10 15:15:00
10:35 AM,77.0,68.0,74,30.34,8.0,ESE,6.9,-,N/A,,Partly Cloudy,120,2013-01-10 15:35:00
10:55 AM,77.0,64.4,65,30.33,9.0,East,10.4,-,N/A,,Partly Cloudy,90,2013-01-10 15:55:00
11:15 AM,78.8,64.4,61,30.31,9.0,ESE,12.7,-,N/A,,Partly Cloudy,110,2013-01-10 16:15:00
11:35 AM,78.8,64.4,61,30.30,9.0,ESE,11.5,-,N/A,,Clear,110,2013-01-10 16:35:00
11:55 AM,78.8,62.6,57,30.29,9.0,ESE,11.5,16.1,N/A,,Clear,110,2013-01-10 16:55:00
12:35 PM,78.8,62.6,57,30.27,9.0,ESE,10.4,16.1,N/A,,Clear,110,2013-01-10 17:35:00
12:55 PM,78.8,62.6,57,30.27,9.0,East,11.5,-,N/A,,Partly Cloudy,80,2013-01-10 17:55:00
1:15 PM,80.6,62.6,54,30.27,9.0,East,12.7,-,N/A,,Scattered Clouds,100,2013-01-10 18:15:00
1:35 PM,80.6,62.6,54,30.27,8.0,East,10.4,-,N/A,,Mostly Cloudy,80,2013-01-10 18:35:00
1:55 PM,80.6,64.4,58,30.27,9.0,ENE,10.4,-,N/A,,Scattered Clouds,70,2013-01-10 18:55:00
2:15 PM,78.8,64.4,61,30.28,8.0,SE,9.2,-,N/A,,Scattered Clouds,130,2013-01-10 19:15:00
2:35 PM,80.6,64.4,58,30.28,9.0,ESE,10.4,-,N/A,,Scattered Clouds,120,2013-01-10 19:35:00
2:55 PM,78.8,64.4,61,30.28,10.0,SE,12.7,16.1,N/A,,Mostly Cloudy,130,2013-01-10 19:55:00
3:15 PM,78.8,64.4,61,30.29,9.0,ESE,10.4,-,N/A,,Scattered Clouds,110,2013-01-10 20:15:00
3:35 PM,77.0,64.4,65,30.30,9.0,ESE,10.4,-,N/A,,Scattered Clouds,120,2013-01-10 20:35:00
3:55 PM,77.0,64.4,65,30.30,9.0,East,10.4,-,N/A,,Scattered Clouds,100,2013-01-10 20:55:00
4:35 PM,75.2,64.4,69,30.30,9.0,East,9.2,-,N/A,,Partly Cloudy,100,2013-01-10 21:35:00
4:55 PM,75.2,64.4,69,30.30,8.0,East,10.4,-,N/A,,Partly Cloudy,90,2013-01-10 21:55:00
5:15 PM,75.2,64.4,69,30.30,9.0,East,6.9,-,N/A,,Scattered Clouds,100,2013-01-10 22:15:00
5:35 PM,73.4,64.4,73,30.29,9.0,East,6.9,-,N/A,,Partly Cloudy,100,2013-01-10 22:35:00
5:55 PM,73.4,66.2,78,30.30,8.0,East,6.9,-,N/A,,Partly Cloudy,100,2013-01-10 22:55:00
6:15 PM,71.6,64.4,78,30.30,8.0,East,5.8,-,N/A,,Clear,100,2013-01-10 23:15:00
6:35 PM,71.6,64.4,78,30.30,9.0,Calm,Calm,-,N/A,,Clear,0,2013-01-10 23:35:00
6:55 PM,71.6,64.4,78,30.31,7.0,ESE,4.6,-,N/A,,Clear,110,2013-01-10 23:55:00
7:15 PM,69.8,64.4,83,30.30,8.0,East,4.6,-,N/A,,Clear,90,2013-01-11 00:15:00
7:35 PM,69.8,64.4,83,30.31,7.0,East,4.6,-,N/A,,Clear,100,2013-01-11 00:35:00
7:55 PM,68.0,64.4,88,30.31,8.0,Calm,Calm,-,N/A,,Clear,0,2013-01-11 00:55:00
8:15 PM,66.2,64.4,94,30.30,8.0,East,5.8,-,N/A,,Clear,100,2013-01-11 01:15:00
8:35 PM,66.2,64.4,94,30.31,9.0,Calm,Calm,-,N/A,,Clear,0,2013-01-11 01:35:00
8:55 PM,66.2,62.6,88,30.32,8.0,Calm,Calm,-,N/A,,Clear,0,2013-01-11 01:55:00
9:15 PM,64.4,62.6,94,30.32,8.0,Calm,Calm,-,N/A,,Clear,0,2013-01-11 02:15:00
9:35 PM,64.4,62.6,94,30.32,7.0,Calm,Calm,-,N/A,,Clear,0,2013-01-11 02:35:00
9:55 PM,64.4,62.6,94,30.32,7.0,Calm,Calm,-,N/A,,Clear,0,2013-01-11 02:55:00
10:15 PM,64.4,62.6,94,30.32,7.0,Calm,Calm,-,N/A,,Clear,0,2013-01-11 03:15:00
10:35 PM,64.4,64.4,100,30.32,7.0,Calm,Calm,-,N/A,,Clear,0,2013-01-11 03:35:00
10:55 PM,64.4,64.4,100,30.31,7.0,Calm,Calm,-,N/A,,Clear,0,2013-01-11 03:55:00
11:15 PM,64.4,62.6,94,30.31,8.0,ESE,5.8,-,N/A,,Clear,120,2013-01-11 04:15:00
11:35 PM,66.2,64.4,94,30.30,7.0,ESE,4.6,-,N/A,,Clear,110,2013-01-11 04:35:00
11:55 PM,66.2,64.4,94,30.30,7.0,ESE,4.6,-,N/A,,Clear,120,2013-01-11 04:55:00